Regional Weather Roundup
Issued by NWS Upton, NY

Home | Current Version | Previous Version | Text Only | Print | Product List | Glossary On
Versions: 1 2 3 4 5 6 7 8 9 10 11 12 13 14 15 16 17 18 19 20 21 22 23 24 25 26 27 28 29 30 31 32 33 34 35 36 37 38 39 40 41 42 43 44 45 46 47 48 49 50
000
ASUS41 KOKX 271605
RWROKX

REGIONAL WEATHER ROUNDUP
NATIONAL WEATHER SERVICE NEW YORK NY
1100 AM EST THU NOV 27 2014

NOTE: "FAIR" INDICATES FEW OR NO CLOUDS BELOW 12,000 FEET WITH NO
SIGNIFICANT WEATHER AND/OR OBSTRUCTIONS TO VISIBILITY.

NYZ071-072-176-178-NJZ106-104-271700-
NEW YORK CITY METRO AREA


CITY           SKY/WX    TMP DP  RH WIND       PRES   REMARKS
CENTRAL PARK   LGT SNOW  35  31  85 VRB3      30.02F FOG
LAGUARDIA APRT LGT SNOW  36  32  87 NW8       30.00S FOG     WCI  29
KENNEDY INTL   FLURRIES  39  31  72 N7        30.01S WCI  34
NEWARK/LIBERTY FLURRIES  36  32  85 W5        30.01S WCI  32
BRNX BOT. GARD   N/A     36  32  87 W5        30.00F WCI  32
TETERBORO      LGT SNOW  36  30  80 NW5       30.00S FOG     WCI  32
$$

NYZ177-179-078>081-271700-
LONG ISLAND NEW YORK

CITY           SKY/WX    TMP DP  RH WIND       PRES   REMARKS
FARMINGDALE    CLOUDY    38  30  73 N7        29.99S WCI  33
ISLIP          FLURRIES  38  30  73 NW6       29.97S WCI  33
SHIRLEY        FLURRIES  37  32  82 N6        29.98F WCI  32
WESTHAMPTON    CLOUDY    39  31  72 NW6       29.98F WCI  35
MONTAUK POINT    N/A     41  32  70 NW7       29.96F
$$

NYZ052-065-067-271700-
HUDSON VALLEY

CITY           SKY/WX    TMP DP  RH WIND       PRES   REMARKS
WHITE PLAINS   LGT SNOW  34  28  79 NW10      29.97S WCI  26
NEWBURGH       LGT SNOW  32  30  93 NE5       30.00S VSB 1   WCI  27
MONTGOMERY     LGT SNOW  33  31  92 CALM      29.99S VSB 1
POUGHKEEPSIE   CLOUDY    34  30  85 CALM      30.01S
ALBANY         CLOUDY    32  26  78 CALM      30.03R
$$

NJZ001-105-106-008-010-013-015-019>022-104-271700-
NEW JERSEY

CITY           SKY/WX    TMP DP  RH WIND       PRES   REMARKS
NEWARK/LIBERTY FLURRIES  36  32  85 W5        30.01S WCI  32
TETERBORO      LGT SNOW  36  30  80 NW5       30.00S FOG     WCI  32
CALDWELL       LGT SNOW  34  30  85 W6        30.01S FOG     WCI  29
MORRISTOWN     CLOUDY    36  32  87 NW6       30.01  WCI  31
SOMERVILLE     LGT SNOW  35  32  88 NW3       30.00F FOG
SUSSEX         LGT SNOW  33  29  85 CALM      30.00S FOG
ANDOVER          N/A     33  29  85 N5        30.00S WCI  29
TRENTON        CLOUDY    36  30  79 NW7       30.02S WCI  30
MILLVILLE      MOSUNNY   40  32  73 CALM      30.02F
ATLANTIC CITY  PTSUNNY   40  35  83 NW7       30.02F
WRIGHTSTOWN    CLOUDY    38  33  82 NW9       30.00S WCI  31
TOMS RIVER     CLOUDY    37  34  87 CALM      30.01F
BELMAR         CLOUDY    37  28  70 W7        30.00S WCI  32
$$

PAZ047>061-062-071-271700-
EASTERN PENNSYLVANIA

CITY           SKY/WX    TMP DP  RH WIND       PRES   REMARKS
PHILADELPHIA   PTSUNNY   39  29  67 NW8       30.04F WCI  33
ALLENTOWN      CLOUDY    35  26  69 NW8       30.02S WCI  29
SCRANTON       LGT SNOW  31  26  82 W14       30.00F WCI  21
$$

CTZ002-004>006-009-010-012-RIZ004-006-007-MAZ004-011-015-271700-
SOUTHERN NEW ENGLAND
 IN CT

CITY           SKY/WX    TMP DP  RH WIND       PRES   REMARKS
BRADLEY INTL   PTSUNNY   36  28  73 N6        29.97S WCI  31
HARTFORD       CLOUDY    35  28  75 VRB5      29.98F WCI  31
DANBURY        CLOUDY    34  25  69 N7        29.99S WCI  28
WTRBRY/OXFORD  CLOUDY    30  25  80 N7        29.97F WCI  23
BRIDGEPORT     CLOUDY    37  29  72 N7        29.99S WCI  32
MERIDEN        CLOUDY    35  27  72 NW8       29.98S WCI  29
NEW HAVEN      PTSUNNY   40  30  67 NW7       29.98S
CHESTER        FAIR      34  30  86 N8        29.95F WCI  27
GROTON         PTSUNNY   39  32  76 N6        29.95F WCI  35
WILLIMANTIC    CLOUDY    36  29  75 N8        29.96F WCI  30

 IN RI

CITY           SKY/WX    TMP DP  RH WIND       PRES   REMARKS
PROVIDENCE     PTSUNNY   40  32  73 NW8       29.95F WCI  34
BLOCK ISLAND   CLOUDY    39  30  70 N6        29.95S WCI  35
WESTERLY       MOSUNNY   40  32  73 N8        29.95F WCI  34

 IN MA

CITY           SKY/WX    TMP DP  RH WIND       PRES   REMARKS
BOSTON         CLOUDY    36  29  75 NW8       29.96S WCI  30
WORCESTER      CLOUDY    30  27  88 W8        29.91F WCI  22
WESTFIELD      PTSUNNY   34  28  79 W3        29.97S
PROVINCETOWN   CLOUDY    43  36  75 NW13      29.93F
NANTUCKET      CLOUDY    41  34  76 NW12      29.92S
$$

ANZ330-335-338-340-345-350-353-355-271700-
COASTAL MARINE OBSERVATIONS


STATION/POSITION TIME  SKY/WX   TEMP    WIND        PRES    VSBY  WAVE
                                AIR SEA DIR/SP/G                  HT/PER
                 (UTC)          (F)     (DEG/KT/KT) (MB)    (MI)  (FT/S)
NY HARB ENTRANCE 1600            39 54  300/  8/ 14 1015.9          4/11
4S FIRE IS       1600               52                N/A           5/11
20S FIRE ISLAND  1600            40 54  320/  8/ 12 1015.0          5/10
23SW MTP         1600                                 N/A           7/10
HUDSON CANYON    1600            46 58  260/ 14/ 17 1014.6
EXECUTION ROCKS  1600            37 47  310/  8/ 10   N/A
WESTERN LI SOUND 1600            37     340/  8/ 12   N/A           0
CENTRAL LI SOUND 1500            36 50  350/  8/ 12   N/A           1/ 3
EASTERN LI SOUND 1500            41 52  350/  8/ 12   N/A
ROBBINS REEF     1600            36     330/  5/  6 1014.9
$$


>>>>>>>>>>>>>>>>>>>>>>>>>>>> KEY <<<<<<<<<<<<<<<<<<<<<<<<<<<
>                                                          <
>     SKY/WX - SKY CONDITION/PRESENT WEATHER               <
>     TMP    - TEMPERATURE IN FAHRENHEIT                   <
>     DP     - DEWPOINT IN FAHRENHEIT                      <
>     RH     - RELATIVE HUMIDITY IN PERCENT                <
>     WIND   - DIRECTION AND SPEED IN MPH                  <
>     PRES   - MEAN SEA LEVEL PRESSURE IN INCHES OF HG     <
>     WCI    - WIND CHILL INDEX                            <
>     VSB    - VISIBILITY IN MILES                         <
>     HX     - HEAT INDEX                                  <
>     TC     - TEMPERATURE IN CELSIUS                      <
>     VRB    - VARIABLE WIND DIRECTION                     <
>                                                          <
>>>>>>>>>>>>>>>>>>>>>>>>>>>> KEY <<<<<<<<<<<<<<<<<<<<<<<<<<<




USA.gov is the U.S. government's official web portal to all federal, state and local government web resources and services.